Location: East Guldeford
(50.9500°N, 0.7500°E)
Time: 17:17:25
(UTC+00:00)

Cosmos 1937 Rocket - Pass Details

Date: 12 May 2021
Orbit: 746 x 781 km, 74.0° (Epoch: 16 June)

Event Time Altitude Azimuth Distance (km) Brightness Sun altitude
Exits shadow 23:11:19 23° 225° (SW) 1,559 4.8 -20.1°
Maximum altitude 23:14:28 60° 298° (WNW) 862 3.9 -20.1°
Drops below altitude 10° 23:19:36 10° 19° (NNE) 2,294 6.9 -20.3°
Sets 23:22:02 0° 23° (NNE) 3,229 7.7 -20.3°
